Location: Zagreb
(45.8000°N, 16.0000°E)
Time: 20:19:26
(UTC+02:00)

SR - Pass Details

Date: 14 August 2020
Orbit: 583 x 873 km, 66.7° (Epoch: 28 September)

Event Time Altitude Azimuth Distance (km) Brightness Sun altitude
Rises 06:11:58 0° 327° (NNW) 2,829 ? 1.9°
Reaches altitude 10° 06:14:09 10° 328° (NNW) 1,941 ? 2.3°
Maximum altitude 06:18:30 86° 57° (ENE) 626 ? 3.0°
Drops below altitude 10° 06:23:06 10° 147° (SSE) 2,049 ? 3.8°
Sets 06:25:28 0° 148° (SSE) 3,001 ? 4.2°
